Weather History for Salina, KS

Change the Weather History Date:

Saturday, October 8, 2011

  Actual Average Record
Temperature  
Mean Temperature 68 °F 60 °F  
Max Temperature 74 °F 72 °F 96 °F (1979)
Min Temperature 61 °F 49 °F 25 °F (2000)
Degree Days  
Heating Degree Days 0 6  
Month to date heating degree days 7 44  
Since 1 July heating degree days 66 96  
Cooling Degree Days 3 2  
Month to date cooling degree days 43 18  
Year to date cooling degree days 2001 1630  
Growing Degree Days 17 (Base 50)    
Moisture  
Dew Point 57 °F    
Average Humidity 71    
Maximum Humidity 93    
Minimum Humidity 49    
Precipitation  
Precipitation 0.12 in 0.08 in 1.50 in (1970)
Month to date precipitation 0.12 0.68  
Year to date precipitation 16.26 27.72  
Sea Level Pressure  
Sea Level Pressure 29.99 in    
Wind  
Wind Speed 13 mph (SSE)    
Max Wind Speed 32 mph    
Max Gust Speed 40 mph    
Visibility 10 miles    
Events Rain    
T = Trace of Precipitation, MM = Missing Value Source: NWS Daily Summary

Daily Weather History Graph

Daily Weather History Graph

Search for Another Location

Airport:

Trip Planner

Search our weather history database for the weather conditions in past years. The results will help you decide how hot, cold, wet, or windy it might be!

Date:

Astronomy

Oct. 08, 2011 Rise Set
Actual Time 7:32 AM CDT 7:02 PM CDT
Civil Twilight 7:06 AM CDT 7:29 PM CDT
Nautical Twilight 6:35 AM CDT 8:00 PM CDT
Astronomical Twilight 6:04 AM CDT 8:31 PM CDT
Moon 5:12 PM CDT (10/8) 4:23 AM CDT (10/8)
Length of Visible Light 12h 23m
Length of Day
11h 29m
Waxing Gibbous, 90% of the Moon is Illuminated
Oct 8
Waxing Gibbous
Oct 11
Full
Oct 19
Last Quarter
Oct 26
New
Nov 2
First Quarter

Hourly Weather History & Observations

Time (CDT) Temp. Dew Point Humidity Pressure Visibility Wind Dir Wind Speed Gust Speed Precip Events Conditions
12:53 AM 72.0 °F 51.1 °F 48% 29.88 in 10.0 mi SSE 19.6 mph - N/A   Clear
1:53 AM 71.1 °F 51.1 °F 49% 29.89 in 10.0 mi SSE 16.1 mph 25.3 mph N/A   Clear
2:53 AM 70.0 °F 51.1 °F 51% 29.90 in 10.0 mi SSE 13.8 mph - N/A   Clear
3:53 AM 71.1 °F 52.0 °F 51% 29.90 in 10.0 mi SSE 18.4 mph 25.3 mph N/A   Clear
4:53 AM 70.0 °F 51.1 °F 51% 29.88 in 10.0 mi SSE 16.1 mph 24.2 mph N/A   Clear
5:53 AM 70.0 °F 52.0 °F 53% 29.91 in 10.0 mi South 18.4 mph 27.6 mph 0.00 in   Clear
6:53 AM 69.8 °F 53.6 °F 56% 29.95 in 10.0 mi SSE 21.9 mph 26.5 mph N/A   Clear
7:53 AM 68.0 °F 53.1 °F 59% 29.93 in 10.0 mi SSE 16.1 mph - N/A   Clear
8:53 AM 71.1 °F 55.9 °F 59% 29.96 in 10.0 mi SSE 20.7 mph 25.3 mph N/A   Clear
9:53 AM 73.0 °F 57.9 °F 59% 29.97 in 10.0 mi South 21.9 mph 32.2 mph N/A   Overcast
10:20 AM 66.2 °F 57.2 °F 73% 30.06 in 10.0 mi WSW 25.3 mph 33.4 mph N/A   Overcast
10:53 AM 63.0 °F 60.1 °F 90% 30.03 in 10.0 mi SSW 6.9 mph - 0.03 in Rain Light Rain
11:53 AM 64.9 °F 60.1 °F 84% 30.04 in 10.0 mi South 10.4 mph - 0.00 in   Overcast
12:53 PM 66.9 °F 61.0 °F 81% 30.04 in 10.0 mi South 6.9 mph - N/A   Overcast
1:53 PM 68.0 °F 59.0 °F 73% 30.03 in 10.0 mi South 9.2 mph - N/A   Overcast
2:53 PM 66.9 °F 59.0 °F 76% 30.01 in 10.0 mi SSE 12.7 mph - N/A   Overcast
3:53 PM 66.9 °F 59.0 °F 76% 30.01 in 10.0 mi SE 12.7 mph - 0.00 in   Overcast
4:53 PM 64.0 °F 59.0 °F 84% 30.02 in 6.0 mi SE 11.5 mph - 0.02 in Rain Rain
5:53 PM 63.0 °F 60.1 °F 90% 30.01 in 10.0 mi ESE 13.8 mph - 0.03 in Rain Light Rain
6:53 PM 62.1 °F 59.0 °F 90% 30.00 in 5.0 mi SE 16.1 mph - 0.02 in Rain Light Rain
7:53 PM 62.1 °F 59.0 °F 90% 30.05 in 10.0 mi SSE 11.5 mph - 0.01 in   Overcast
8:53 PM 62.1 °F 59.0 °F 90% 30.06 in 10.0 mi SE 10.4 mph - 0.00 in Rain Light Rain
9:53 PM 62.1 °F 59.0 °F 90% 30.06 in 10.0 mi SSE 12.7 mph 20.7 mph 0.00 in   Overcast
10:53 PM 61.0 °F 59.0 °F 93% 30.09 in 10.0 mi South 10.4 mph - 0.00 in Rain Light Rain
11:53 PM 61.0 °F 59.0 °F 93% 30.08 in 10.0 mi SE 8.1 mph - 0.00 in   Overcast